Hourly Data Report for October 03, 2017

All times are specified in Local Standard Time (LST). Add 1 hour to adjust for Daylight Saving Time where and when it is observed.

HOLMAN CS
NORTHWEST TERRITORIES

70°45'41.002" N
117°48'00.002" W
29.90 m
2502505
71029
XHI

Download Data

Hourly Data (October 2017)
Hourly Data Report for October 3, 2017
Temp Definition
°C
Dew Point Temp Definition
°C
Rel Hum Definition
%
Wind Dir Definition
10's deg

Wind Spd Definition
km/h
Visibility Definition
km
Stn Press Definition
kPa
Hmdx Definition


Wind Chill Definition


Weather Definition


TIME
00:00 -4.3 -6.8 83 2 20   101.62   -11 LegendNANA
01:00 -4.1 -6.6 83 34 17   101.61   -10 LegendNANA
02:00 -3.9 -6.4 83 33 12   101.56   -9 LegendNANA
03:00 -4.5 -6.3 87 2 16   101.55   -10 LegendNANA
04:00 -5.1 -7.2 85 36 23   101.53   -12 LegendNANA
05:00 -6.5 -8.4 87 35 19   101.53   -13 LegendNANA
06:00 -6.3 -8.3 86 35 17   101.57   -13 LegendNANA
07:00 -6.4 -7.9 89 36 24   101.55   -14 LegendNANA
08:00 -6.5 -8.2 88 33 16   101.55   -13 LegendNANA
09:00 -6.7 -7.9 91 36 29   101.53   -15 LegendNANA
10:00 -6.4 -7.8 90 36 28   101.51   -15 LegendNANA
11:00 -7.8 -9.2 89 2 23   101.53   -16 LegendNANA
12:00 -8.2 -10.8 82 1 15   101.57   -15 LegendNANA
13:00 -8.4 -10.7 83 1 20   101.60   -16 LegendNANA
14:00 -8.4 -10.7 84 36 15   101.67   -15 LegendNANA
15:00 -8.4 -10.2 87 36 29   101.66   -17 LegendNANA
16:00 -8.3 -10.2 86 36 36   101.63   -18 LegendNANA
17:00 -8.5 -9.9 89 35 17   101.67   -15 LegendNANA
18:00 -8.3 -9.4 92 1 25   101.69   -17 LegendNANA
19:00 -8.2 -10.1 87 1 13   101.72   -14 LegendNANA
20:00 -8.7 -10.3 88 2 17   101.72   -16 LegendNANA
21:00 -8.0 -9.5 89 13 5   101.74   -11 LegendNANA
22:00 -9.1 -10.9 86 36 13   101.74   -15 LegendNANA
23:00 -8.0 -9.6 89 36 21   101.73   -16 LegendNANA

Notes on Data Quality.

Legend

  • E = Estimated
  • M = Missing
  • NA = Not Available
  • ‡ = Partner data that is not subject to review by the National Climate Archives
Date modified: